STARLINK-4743

operational
NORAD ID: 53787 Int'l Des: 2022-111 Owner: SPXS Country: US Constellation: starlink
LEOCIRCULAR

STARLINK-4743について

説明を読み込み中...

リアルタイム位置

3D地球を読み込み中...

次回通過

高度履歴

Altitude vs Time

uPlot chart will show altitude changes over time

軌道要素

1 53787U 22111Q 25251.63038822 -.00001400 00000-0 -69905-4 0 9994
2 53787 53.2173 11.2535 0001110 88.5096 271.6024 15.08823227166215
Epoch: Sep 8, 2025 • Age: 19 hours

現在のステータス

高度 543.2 km
速度 7.59 km/s
衛星直下点 -11.99°S, 142.21°W
打ち上げ日 Sep 11, 2022
運用期間 2.9 years
タイプ internet

技術仕様

分類 Payload
質量 305.00 kg
乾燥質量 290.00 kg
総質量 305.00 kg
長さ 0.20 m
直径 2.80 m
スパン 9.00 m
形状 Box + pan
製造者 SPXS
バスタイプ Starlink
フェーズステータス In Orbit
所有者/国 SPXS/US

大規模コンステレーション

Loading constellations...